Saint Bonnet de Bellac- Haute Vienne - France
Donnes mto: samedi, 05/11/2011
Date Horaire Temp. E. Hum. E. P.atmo. Pluie Vent Direction Direction Ensoleilleme Solaire P. de rose Temp au vent Rafales
05/11/2011 00:00 12,3 C 89 % 995,6 hPa 0,0 mm 1,1 km/h (1 Bft) N-NE 22 0 min 0 W/m 10,5 C 12,3 C 9,4 km/h (2 Bft)
05/11/2011 00:05 12,3 C 90 % 995,7 hPa 0,3 mm 0,0 km/h (0 Bft) N 360 0 min 0 W/m 10,7 C 12,3 C 0,0 km/h (0 Bft)
05/11/2011 00:10 12,2 C 90 % 995,8 hPa 0,0 mm 0,0 km/h (0 Bft) N 360 0 min 0 W/m 10,6 C 12,2 C 0,0 km/h (0 Bft)
05/11/2011 00:15 12,2 C 90 % 995,8 hPa 0,0 mm 0,0 km/h (0 Bft) N 360 0 min 0 W/m 10,6 C 12,2 C 0,0 km/h (0 Bft)
05/11/2011 00:20 12,2 C 90 % 995,9 hPa 0,0 mm 0,0 km/h (0 Bft) N 360 0 min 0 W/m 10,6 C 12,2 C 0,0 km/h (0 Bft)
05/11/2011 00:25 12,2 C 90 % 996,0 hPa 0,0 mm 0,0 km/h (0 Bft) N 360 0 min 0 W/m 10,6 C 12,2 C 0,0 km/h (0 Bft)
05/11/2011 00:30 12,2 C 90 % 996,0 hPa 0,3 mm 0,0 km/h (0 Bft) N 360 0 min 0 W/m 10,6 C 12,2 C 0,0 km/h (0 Bft)
05/11/2011 00:35 12,2 C 90 % 996,2 hPa 0,0 mm 0,0 km/h (0 Bft) N 360 0 min 0 W/m 10,6 C 12,2 C 0,0 km/h (0 Bft)
05/11/2011 00:40 12,2 C 90 % 996,2 hPa 0,3 mm 0,0 km/h (0 Bft) N 360 0 min 0 W/m 10,6 C 12,2 C 0,0 km/h (0 Bft)
05/11/2011 00:45 12,2 C 90 % 996,2 hPa 0,0 mm 0,0 km/h (0 Bft) N 360 0 min 0 W/m 10,6 C 12,2 C 0,0 km/h (0 Bft)
05/11/2011 00:50 12,2 C 90 % 996,3 hPa 0,3 mm 0,0 km/h (0 Bft) N 360 0 min 0 W/m 10,6 C 12,2 C 0,0 km/h (0 Bft)
05/11/2011 00:55 12,2 C 90 % 996,3 hPa 0,0 mm 0,0 km/h (0 Bft) N 360 0 min 0 W/m 10,6 C 12,2 C 0,0 km/h (0 Bft)
05/11/2011 01:00 12,2 C 90 % 996,4 hPa 0,0 mm 0,0 km/h (0 Bft) N 360 0 min 0 W/m 10,6 C 12,2 C 0,0 km/h (0 Bft)
05/11/2011 01:05 12,1 C 91 % 996,3 hPa 0,3 mm 0,0 km/h (0 Bft) N 360 0 min 0 W/m 10,7 C 12,1 C 0,0 km/h (0 Bft)
05/11/2011 01:10 12,2 C 91 % 996,4 hPa 0,0 mm 0,0 km/h (0 Bft) N 360 0 min 0 W/m 10,8 C 12,2 C 0,0 km/h (0 Bft)
05/11/2011 01:15 12,2 C 91 % 996,3 hPa 0,0 mm 0,0 km/h (0 Bft) N 360 0 min 0 W/m 10,8 C 12,2 C 0,0 km/h (0 Bft)
05/11/2011 01:20 12,2 C 91 % 996,2 hPa 0,0 mm 0,0 km/h (0 Bft) N 360 0 min 0 W/m 10,8 C 12,2 C 0,0 km/h (0 Bft)
05/11/2011 01:25 12,2 C 91 % 996,3 hPa 0,3 mm 0,0 km/h (0 Bft) N-NO 337 0 min 0 W/m 10,8 C 12,2 C 0,0 km/h (0 Bft)
05/11/2011 01:30 12,2 C 91 % 996,4 hPa 0,0 mm 0,0 km/h (0 Bft) NO 315 0 min 0 W/m 10,8 C 12,2 C 0,0 km/h (0 Bft)
05/11/2011 01:35 12,2 C 91 % 996,5 hPa 0,0 mm 0,0 km/h (0 Bft) O-NO 292 0 min 0 W/m 10,8 C 12,2 C 0,0 km/h (0 Bft)
05/11/2011 01:40 12,2 C 91 % 996,4 hPa 0,0 mm 1,1 km/h (1 Bft) O-SO 247 0 min 0 W/m 10,8 C 12,2 C 3,2 km/h (1 Bft)
05/11/2011 01:45 12,2 C 92 % 996,3 hPa 0,0 mm 0,7 km/h (0 Bft) O-NO 292 0 min 0 W/m 10,9 C 12,2 C 4,0 km/h (1 Bft)
05/11/2011 01:50 12,2 C 92 % 996,5 hPa 0,5 mm 2,5 km/h (1 Bft) N-NO 337 0 min 0 W/m 10,9 C 12,2 C 6,5 km/h (2 Bft)
05/11/2011 01:55 12,2 C 92 % 996,7 hPa 0,3 mm 0,0 km/h (0 Bft) O-SO 247 0 min 0 W/m 10,9 C 12,2 C 0,0 km/h (0 Bft)
05/11/2011 02:02 12,1 C 92 % 996,4 hPa 0,0 mm 0,4 km/h (0 Bft) O 270 0 min 0 W/m 10,8 C 12,1 C 3,2 km/h (1 Bft)
05/11/2011 02:05 12,1 C 92 % 996,5 hPa 0,0 mm 1,4 km/h (1 Bft) S-SO 202 0 min 0 W/m 10,8 C 12,1 C 4,0 km/h (1 Bft)
05/11/2011 02:10 12,1 C 92 % 996,6 hPa 0,0 mm 0,0 km/h (0 Bft) O 270 0 min 0 W/m 10,8 C 12,1 C 0,0 km/h (0 Bft)
05/11/2011 02:15 12,0 C 92 % 996,7 hPa 0,0 mm 0,0 km/h (0 Bft) O-NO 292 0 min 0 W/m 10,7 C 12,0 C 0,0 km/h (0 Bft)
05/11/2011 02:20 12,0 C 92 % 996,6 hPa 0,0 mm 2,5 km/h (1 Bft) NO 315 0 min 0 W/m 10,7 C 12,0 C 3,6 km/h (1 Bft)
05/11/2011 02:25 12,0 C 92 % 996,6 hPa 0,0 mm 1,8 km/h (1 Bft) N-NO 337 0 min 0 W/m 10,7 C 12,0 C 3,6 km/h (1 Bft)
05/11/2011 02:30 12,0 C 92 % 996,5 hPa 0,0 mm 1,4 km/h (1 Bft) N-NO 337 0 min 0 W/m 10,7 C 12,0 C 3,6 km/h (1 Bft)
05/11/2011 02:35 11,9 C 92 % 996,4 hPa 0,3 mm 3,2 km/h (1 Bft) N-NO 337 0 min 0 W/m 10,6 C 11,9 C 6,5 km/h (2 Bft)
05/11/2011 02:40 11,9 C 92 % 996,3 hPa 0,0 mm 0,0 km/h (0 Bft) N-NO 337 0 min 0 W/m 10,6 C 11,9 C 1,4 km/h (1 Bft)
05/11/2011 02:45 11,9 C 92 % 996,1 hPa 0,0 mm 2,2 km/h (1 Bft) N 360 0 min 0 W/m 10,6 C 11,9 C 3,2 km/h (1 Bft)
05/11/2011 02:50 11,9 C 92 % 996,1 hPa 0,0 mm 1,8 km/h (1 Bft) N-NO 337 0 min 0 W/m 10,6 C 11,9 C 1,8 km/h (1 Bft)
05/11/2011 02:55 11,8 C 92 % 996,6 hPa 0,0 mm 0,0 km/h (0 Bft) N-NO 337 0 min 0 W/m 10,5 C 11,8 C 0,0 km/h (0 Bft)
05/11/2011 03:00 11,8 C 92 % 996,9 hPa 0,0 mm 0,7 km/h (0 Bft) N-NO 337 0 min 0 W/m 10,5 C 11,8 C 2,9 km/h (1 Bft)
05/11/2011 03:05 11,8 C 92 % 997,1 hPa 0,0 mm 0,0 km/h (0 Bft) N-NO 337 0 min 0 W/m 10,5 C 11,8 C 0,0 km/h (0 Bft)
05/11/2011 03:10 11,8 C 92 % 997,0 hPa 0,0 mm 0,0 km/h (0 Bft) N-NO 337 0 min 0 W/m 10,5 C 11,8 C 0,0 km/h (0 Bft)
05/11/2011 03:15 11,8 C 92 % 997,0 hPa 0,0 mm 0,0 km/h (0 Bft) N-NO 337 0 min 0 W/m 10,5 C 11,8 C 0,0 km/h (0 Bft)
05/11/2011 03:20 11,7 C 92 % 997,1 hPa 0,0 mm 0,0 km/h (0 Bft) N-NO 337 0 min 0 W/m 10,4 C 11,7 C 0,0 km/h (0 Bft)
05/11/2011 03:25 11,6 C 92 % 997,2 hPa 0,0 mm 0,0 km/h (0 Bft) N-NO 337 0 min 0 W/m 10,3 C 11,6 C 0,0 km/h (0 Bft)
05/11/2011 03:30 11,6 C 92 % 997,1 hPa 0,0 mm 1,1 km/h (1 Bft) N-NO 337 0 min 0 W/m 10,3 C 11,6 C 4,0 km/h (1 Bft)
05/11/2011 03:35 11,6 C 92 % 996,9 hPa 0,0 mm 0,0 km/h (0 Bft) N-NO 337 0 min 0 W/m 10,3 C 11,6 C 0,0 km/h (0 Bft)
05/11/2011 03:40 11,5 C 92 % 996,9 hPa 0,0 mm 0,0 km/h (0 Bft) N-NO 337 0 min 0 W/m 10,2 C 11,5 C 0,0 km/h (0 Bft)
05/11/2011 03:45 11,4 C 92 % 996,9 hPa 0,0 mm 0,0 km/h (0 Bft) N-NO 337 0 min 0 W/m 10,1 C 11,4 C 0,0 km/h (0 Bft)
05/11/2011 03:50 11,4 C 92 % 997,1 hPa 0,0 mm 0,0 km/h (0 Bft) N-NO 337 0 min 0 W/m 10,1 C 11,4 C 0,0 km/h (0 Bft)
05/11/2011 03:55 11,3 C 92 % 997,2 hPa 0,0 mm 0,0 km/h (0 Bft) N-NO 337 0 min 0 W/m 10,0 C 11,3 C 0,0 km/h (0 Bft)
05/11/2011 04:00 11,3 C 92 % 997,2 hPa 0,0 mm 0,0 km/h (0 Bft) N-NO 337 0 min 0 W/m 10,0 C 11,3 C 0,0 km/h (0 Bft)
05/11/2011 04:05 11,2 C 92 % 997,1 hPa 0,0 mm 0,0 km/h (0 Bft) N-NO 337 0 min 0 W/m 9,9 C 11,2 C 0,0 km/h (0 Bft)
05/11/2011 04:10 11,1 C 92 % 996,9 hPa 0,0 mm 0,0 km/h (0 Bft) N-NO 337 0 min 0 W/m 9,8 C 11,1 C 0,0 km/h (0 Bft)
05/11/2011 04:15 11,1 C 92 % 997,0 hPa 0,0 mm 0,0 km/h (0 Bft) N-NO 337 0 min 0 W/m 9,8 C 11,1 C 0,0 km/h (0 Bft)
05/11/2011 04:20 11,1 C 92 % 997,0 hPa 0,0 mm 0,0 km/h (0 Bft) N-NO 337 0 min 0 W/m 9,8 C 11,1 C 0,0 km/h (0 Bft)
05/11/2011 04:25 11,0 C 92 % 997,1 hPa 0,0 mm 0,0 km/h (0 Bft) N-NO 337 0 min 0 W/m 9,8 C 11,0 C 0,0 km/h (0 Bft)
05/11/2011 04:30 11,0 C 92 % 996,9 hPa 0,0 mm 0,0 km/h (0 Bft) N-NO 337 0 min 0 W/m 9,8 C 11,0 C 0,0 km/h (0 Bft)
05/11/2011 04:35 11,1 C 93 % 997,1 hPa 0,0 mm 0,0 km/h (0 Bft) N-NO 337 0 min 0 W/m 10,0 C 11,1 C 0,0 km/h (0 Bft)
05/11/2011 04:40 11,1 C 93 % 997,6 hPa 0,0 mm 0,0 km/h (0 Bft) N-NO 337 0 min 0 W/m 10,0 C 11,1 C 0,0 km/h (0 Bft)
05/11/2011 04:45 11,1 C 93 % 997,7 hPa 0,0 mm 0,0 km/h (0 Bft) N-NO 337 0 min 0 W/m 10,0 C 11,1 C 0,0 km/h (0 Bft)
05/11/2011 04:50 11,1 C 93 % 997,7 hPa 0,0 mm 0,0 km/h (0 Bft) N-NO 337 0 min 0 W/m 10,0 C 11,1 C 0,0 km/h (0 Bft)
05/11/2011 04:55 11,2 C 93 % 997,6 hPa 0,0 mm 0,0 km/h (0 Bft) N-NO 337 0 min 0 W/m 10,1 C 11,2 C 0,0 km/h (0 Bft)
05/11/2011 05:00 11,2 C 93 % 997,5 hPa 0,0 mm 0,0 km/h (0 Bft) N-NO 337 0 min 0 W/m 10,1 C 11,2 C 0,0 km/h (0 Bft)
05/11/2011 05:05 11,2 C 93 % 997,3 hPa 0,0 mm 0,0 km/h (0 Bft) N-NO 337 0 min 0 W/m 10,1 C 11,2 C 0,0 km/h (0 Bft)
05/11/2011 05:10 11,2 C 93 % 997,4 hPa 0,0 mm 0,0 km/h (0 Bft) N-NO 337 0 min 0 W/m 10,1 C 11,2 C 0,0 km/h (0 Bft)
05/11/2011 05:15 11,2 C 93 % 997,4 hPa 0,0 mm 0,0 km/h (0 Bft) N-NO 337 0 min 0 W/m 10,1 C 11,2 C 0,0 km/h (0 Bft)
05/11/2011 05:20 11,1 C 93 % 997,3 hPa 0,0 mm 0,0 km/h (0 Bft) N-NO 337 0 min 0 W/m 10,0 C 11,1 C 0,0 km/h (0 Bft)
05/11/2011 05:25 11,1 C 93 % 997,5 hPa 0,0 mm 0,4 km/h (0 Bft) N-NO 337 0 min 0 W/m 10,0 C 11,1 C 3,2 km/h (1 Bft)
05/11/2011 05:30 11,0 C 93 % 997,8 hPa 0,0 mm 0,0 km/h (0 Bft) N-NO 337 0 min 0 W/m 9,9 C 11,0 C 0,0 km/h (0 Bft)
05/11/2011 05:35 10,9 C 93 % 998,0 hPa 0,0 mm 0,0 km/h (0 Bft) N-NO 337 0 min 0 W/m 9,8 C 10,9 C 0,0 km/h (0 Bft)
05/11/2011 05:40 10,9 C 93 % 998,1 hPa 0,0 mm 0,0 km/h (0 Bft) N-NO 337 0 min 0 W/m 9,8 C 10,9 C 0,0 km/h (0 Bft)
05/11/2011 05:45 10,9 C 93 % 998,2 hPa 0,0 mm 0,0 km/h (0 Bft) N-NO 337 0 min 0 W/m 9,8 C 10,9 C 0,0 km/h (0 Bft)
05/11/2011 05:50 10,9 C 93 % 997,9 hPa 0,0 mm 0,0 km/h (0 Bft) N-NO 337 0 min 0 W/m 9,8 C 10,9 C 0,0 km/h (0 Bft)
05/11/2011 05:55 11,0 C 93 % 998,0 hPa 0,0 mm 0,0 km/h (0 Bft) N-NO 337 0 min 0 W/m 9,9 C 11,0 C 0,0 km/h (0 Bft)
05/11/2011 06:00 11,1 C 93 % 998,1 hPa 0,0 mm 0,0 km/h (0 Bft) N-NO 337 0 min 0 W/m 10,0 C 11,1 C 0,0 km/h (0 Bft)
05/11/2011 06:05 11,1 C 93 % 998,3 hPa 0,0 mm 0,0 km/h (0 Bft) N-NO 337 0 min 0 W/m 10,0 C 11,1 C 0,0 km/h (0 Bft)
05/11/2011 06:10 11,1 C 93 % 998,5 hPa 0,0 mm 0,0 km/h (0 Bft) N-NO 337 0 min 0 W/m 10,0 C 11,1 C 0,0 km/h (0 Bft)
05/11/2011 06:15 11,2 C 93 % 998,6 hPa 0,0 mm 0,0 km/h (0 Bft) N-NO 337 0 min 0 W/m 10,1 C 11,2 C 0,0 km/h (0 Bft)
05/11/2011 06:20 11,2 C 93 % 998,6 hPa 0,0 mm 0,0 km/h (0 Bft) N-NO 337 0 min 0 W/m 10,1 C 11,2 C 0,0 km/h (0 Bft)
05/11/2011 06:25 11,2 C 93 % 998,5 hPa 0,0 mm 0,0 km/h (0 Bft) N-NO 337 0 min 0 W/m 10,1 C 11,2 C 0,0 km/h (0 Bft)
05/11/2011 06:30 11,2 C 93 % 998,4 hPa 0,0 mm 0,0 km/h (0 Bft) N-NO 337 0 min 0 W/m 10,1 C 11,2 C 0,0 km/h (0 Bft)
05/11/2011 06:35 11,2 C 93 % 998,5 hPa 0,0 mm 0,0 km/h (0 Bft) N-NO 337 0 min 0 W/m 10,1 C 11,2 C 0,0 km/h (0 Bft)
05/11/2011 06:40 11,2 C 93 % 998,4 hPa 0,0 mm 0,0 km/h (0 Bft) N-NO 337 0 min 0 W/m 10,1 C 11,2 C 0,0 km/h (0 Bft)
05/11/2011 06:45 11,2 C 93 % 998,5 hPa 0,0 mm 0,0 km/h (0 Bft) N-NO 337 0 min 0 W/m 10,1 C 11,2 C 0,0 km/h (0 Bft)
05/11/2011 06:50 11,2 C 93 % 998,5 hPa 0,3 mm 0,0 km/h (0 Bft) N-NO 337 0 min 0 W/m 10,1 C 11,2 C 0,0 km/h (0 Bft)
05/11/2011 06:55 11,2 C 93 % 998,6 hPa 0,0 mm 0,0 km/h (0 Bft) NO 315 0 min 0 W/m 10,1 C 11,2 C 0,0 km/h (0 Bft)
05/11/2011 07:00 11,2 C 93 % 998,6 hPa 0,0 mm 0,0 km/h (0 Bft) NO 315 0 min 0 W/m 10,1 C 11,2 C 0,0 km/h (0 Bft)
05/11/2011 07:05 11,2 C 93 % 998,7 hPa 0,0 mm 0,0 km/h (0 Bft) NO 315 0 min 0 W/m 10,1 C 11,2 C 0,0 km/h (0 Bft)
05/11/2011 07:10 11,3 C 93 % 998,8 hPa 0,0 mm 0,0 km/h (0 Bft) NO 315 0 min 0 W/m 10,2 C 11,3 C 0,0 km/h (0 Bft)
05/11/2011 07:15 11,2 C 93 % 998,8 hPa 0,0 mm 0,0 km/h (0 Bft) NO 315 0 min 0 W/m 10,1 C 11,2 C 0,0 km/h (0 Bft)
05/11/2011 07:20 11,2 C 93 % 998,9 hPa 0,0 mm 0,0 km/h (0 Bft) O-SO 247 0 min 0 W/m 10,1 C 11,2 C 0,0 km/h (0 Bft)
05/11/2011 07:25 11,3 C 93 % 998,7 hPa 0,0 mm 0,0 km/h (0 Bft) O-SO 247 0 min 0 W/m 10,2 C 11,3 C 0,0 km/h (0 Bft)
05/11/2011 07:30 11,3 C 93 % 998,5 hPa 0,0 mm 0,0 km/h (0 Bft) N 360 0 min 0 W/m 10,2 C 11,3 C 0,0 km/h (0 Bft)
05/11/2011 07:35 11,3 C 93 % 998,6 hPa 0,0 mm 0,0 km/h (0 Bft) N 360 0 min 0 W/m 10,2 C 11,3 C 0,0 km/h (0 Bft)
05/11/2011 07:40 11,3 C 93 % 998,7 hPa 0,0 mm 1,8 km/h (1 Bft) N-NE 22 0 min 0 W/m 10,2 C 11,3 C 5,8 km/h (2 Bft)
05/11/2011 07:45 11,3 C 93 % 998,6 hPa 0,0 mm 2,2 km/h (1 Bft) N-NE 22 0 min 0 W/m 10,2 C 11,3 C 6,1 km/h (2 Bft)
05/11/2011 07:50 11,3 C 93 % 998,7 hPa 0,0 mm 0,0 km/h (0 Bft) N-NE 22 0 min 0 W/m 10,2 C 11,3 C 0,0 km/h (0 Bft)
05/11/2011 07:55 11,3 C 93 % 998,6 hPa 0,0 mm 0,4 km/h (0 Bft) NE 45 0 min 0 W/m 10,2 C 11,3 C 0,4 km/h (0 Bft)
05/11/2011 08:00 11,3 C 93 % 998,9 hPa 0,0 mm 0,0 km/h (0 Bft) N-NE 22 0 min 0 W/m 10,2 C 11,3 C 0,0 km/h (0 Bft)
05/11/2011 08:05 11,3 C 93 % 999,0 hPa 0,0 mm 0,4 km/h (0 Bft) N-NE 22 0 min 0 W/m 10,2 C 11,3 C 0,4 km/h (0 Bft)
05/11/2011 08:10 11,3 C 93 % 999,2 hPa 0,0 mm 0,0 km/h (0 Bft) N-NE 22 0 min 0 W/m 10,2 C 11,3 C 0,0 km/h (0 Bft)
05/11/2011 08:15 11,3 C 93 % 999,5 hPa 0,0 mm 0,0 km/h (0 Bft) N-NE 22 0 min 0 W/m 10,2 C 11,3 C 0,0 km/h (0 Bft)
05/11/2011 08:20 11,3 C 93 % 999,7 hPa 0,0 mm 0,0 km/h (0 Bft) N-NE 22 0 min 0 W/m 10,2 C 11,3 C 0,0 km/h (0 Bft)
05/11/2011 08:25 11,3 C 94 % 999,7 hPa 0,0 mm 0,0 km/h (0 Bft) N-NE 22 0 min 0 W/m 10,4 C 11,3 C 0,0 km/h (0 Bft)
05/11/2011 08:30 11,3 C 94 % 999,9 hPa 0,0 mm 0,0 km/h (0 Bft) N-NE 22 0 min 0 W/m 10,4 C 11,3 C 0,0 km/h (0 Bft)
05/11/2011 08:35 11,3 C 94 % 1000,1 hPa 0,0 mm 0,0 km/h (0 Bft) N-NE 22 0 min 0 W/m 10,4 C 11,3 C 0,0 km/h (0 Bft)
05/11/2011 08:40 11,3 C 94 % 1000,2 hPa 0,0 mm 0,0 km/h (0 Bft) N-NE 22 0 min 0 W/m 10,4 C 11,3 C 0,0 km/h (0 Bft)
05/11/2011 08:45 11,3 C 94 % 1000,1 hPa 0,0 mm 0,0 km/h (0 Bft) N-NE 22 0 min 0 W/m 10,4 C 11,3 C 0,0 km/h (0 Bft)
05/11/2011 08:50 11,3 C 94 % 1000,1 hPa 0,0 mm 0,4 km/h (0 Bft) N-NE 22 0 min 0 W/m 10,4 C 11,3 C 3,6 km/h (1 Bft)
05/11/2011 08:55 11,3 C 94 % 1000,0 hPa 0,0 mm 0,0 km/h (0 Bft) N 360 0 min 0 W/m 10,4 C 11,3 C 0,0 km/h (0 Bft)
05/11/2011 09:00 11,3 C 94 % 1000,1 hPa 0,0 mm 0,0 km/h (0 Bft) N 360 0 min 0 W/m 10,4 C 11,3 C 0,0 km/h (0 Bft)
05/11/2011 09:05 11,3 C 94 % 1000,0 hPa 0,0 mm 0,0 km/h (0 Bft) N 360 0 min 0 W/m 10,4 C 11,3 C 0,0 km/h (0 Bft)
05/11/2011 09:10 11,3 C 94 % 1000,1 hPa 0,0 mm 0,0 km/h (0 Bft) N-NO 337 0 min 0 W/m 10,4 C 11,3 C 0,0 km/h (0 Bft)
05/11/2011 09:15 11,3 C 94 % 1000,1 hPa 0,0 mm 0,0 km/h (0 Bft) N-NO 337 0 min 0 W/m 10,4 C 11,3 C 0,0 km/h (0 Bft)
05/11/2011 09:20 11,3 C 94 % 1000,2 hPa 0,0 mm 0,0 km/h (0 Bft) N-NO 337 0 min 0 W/m 10,4 C 11,3 C 0,0 km/h (0 Bft)
05/11/2011 09:25 11,3 C 94 % 1000,2 hPa 0,0 mm 1,1 km/h (1 Bft) N-NO 337 0 min 0 W/m 10,4 C 11,3 C 3,6 km/h (1 Bft)
05/11/2011 09:30 11,4 C 94 % 1000,1 hPa 0,0 mm 0,0 km/h (0 Bft) N-NO 337 0 min 0 W/m 10,5 C 11,4 C 0,0 km/h (0 Bft)
05/11/2011 09:35 11,4 C 94 % 1000,4 hPa 0,0 mm 0,0 km/h (0 Bft) N-NO 337 0 min 0 W/m 10,5 C 11,4 C 0,0 km/h (0 Bft)
05/11/2011 09:40 11,4 C 94 % 1000,3 hPa 0,0 mm 0,0 km/h (0 Bft) N-NO 337 0 min 0 W/m 10,5 C 11,4 C 0,0 km/h (0 Bft)
05/11/2011 09:45 11,5 C 94 % 1000,3 hPa 0,0 mm 0,0 km/h (0 Bft) N 360 0 min 0 W/m 10,6 C 11,5 C 0,0 km/h (0 Bft)
05/11/2011 09:50 11,5 C 94 % 1000,4 hPa 0,0 mm 0,0 km/h (0 Bft) N 360 0 min 0 W/m 10,6 C 11,5 C 0,0 km/h (0 Bft)
05/11/2011 09:55 11,6 C 94 % 1000,4 hPa 0,0 mm 0,0 km/h (0 Bft) N 360 0 min 0 W/m 10,7 C 11,6 C 0,0 km/h (0 Bft)
05/11/2011 10:00 11,6 C 94 % 1000,5 hPa 0,0 mm 0,0 km/h (0 Bft) N-NO 337 0 min 0 W/m 10,7 C 11,6 C 0,0 km/h (0 Bft)
05/11/2011 10:05 11,6 C 94 % 1000,6 hPa 0,0 mm 1,4 km/h (1 Bft) N-NO 337 0 min 0 W/m 10,7 C 11,6 C 4,0 km/h (1 Bft)
05/11/2011 10:10 11,6 C 94 % 1000,5 hPa 0,0 mm 0,0 km/h (0 Bft) N-NO 337 0 min 0 W/m 10,7 C 11,6 C 0,0 km/h (0 Bft)
05/11/2011 10:15 11,7 C 94 % 1000,3 hPa 0,0 mm 3,2 km/h (1 Bft) NO 315 0 min 0 W/m 10,8 C 11,7 C 6,8 km/h (2 Bft)
05/11/2011 10:20 11,7 C 94 % 1000,4 hPa 0,0 mm 1,8 km/h (1 Bft) N-NO 337 0 min 0 W/m 10,8 C 11,7 C 6,8 km/h (2 Bft)
05/11/2011 10:25 11,8 C 94 % 1000,5 hPa 0,0 mm 4,3 km/h (1 Bft) N-NO 337 0 min 0 W/m 10,9 C 11,8 C 7,6 km/h (2 Bft)
05/11/2011 10:30 11,8 C 94 % 1000,6 hPa 0,0 mm 0,0 km/h (0 Bft) E 90 0 min 0 W/m 10,9 C 11,8 C 0,0 km/h (0 Bft)
05/11/2011 10:35 11,8 C 94 % 1000,8 hPa 0,0 mm 4,0 km/h (1 Bft) N-NO 337 0 min 0 W/m 10,9 C 11,8 C 10,1 km/h (2 Bft)
05/11/2011 10:40 11,8 C 94 % 1000,7 hPa 0,0 mm 0,0 km/h (0 Bft) N 360 0 min 0 W/m 10,9 C 11,8 C 0,0 km/h (0 Bft)
05/11/2011 10:45 11,8 C 94 % 1000,8 hPa 0,0 mm 0,4 km/h (0 Bft) N-NO 337 0 min 0 W/m 10,9 C 11,8 C 4,0 km/h (1 Bft)
05/11/2011 10:50 11,8 C 94 % 1000,9 hPa 0,0 mm 0,4 km/h (0 Bft) N-NO 337 0 min 0 W/m 10,9 C 11,8 C 0,4 km/h (0 Bft)
05/11/2011 10:55 11,8 C 94 % 1001,1 hPa 0,0 mm 0,0 km/h (0 Bft) N-NO 337 0 min 0 W/m 10,9 C 11,8 C 0,0 km/h (0 Bft)
05/11/2011 11:00 11,8 C 94 % 1001,2 hPa 0,0 mm 0,0 km/h (0 Bft) N-NO 337 0 min 0 W/m 10,9 C 11,8 C 0,0 km/h (0 Bft)
05/11/2011 11:05 11,8 C 94 % 1001,4 hPa 0,0 mm 0,0 km/h (0 Bft) N-NO 337 0 min 0 W/m 10,9 C 11,8 C 2,9 km/h (1 Bft)
05/11/2011 11:10 11,8 C 94 % 1001,5 hPa 0,0 mm 0,0 km/h (0 Bft) N-NO 337 0 min 0 W/m 10,9 C 11,8 C 0,0 km/h (0 Bft)
05/11/2011 11:15 11,8 C 94 % 1001,6 hPa 0,0 mm 0,0 km/h (0 Bft) N-NE 22 0 min 0 W/m 10,9 C 11,8 C 0,0 km/h (0 Bft)
05/11/2011 11:20 11,9 C 94 % 1001,5 hPa 0,0 mm 0,7 km/h (0 Bft) N-NE 22 0 min 0 W/m 11,0 C 11,9 C 4,3 km/h (1 Bft)
05/11/2011 11:25 11,9 C 94 % 1001,5 hPa 0,0 mm 3,6 km/h (1 Bft) N-NE 22 0 min 0 W/m 11,0 C 11,9 C 6,1 km/h (2 Bft)
05/11/2011 11:30 11,9 C 94 % 1001,5 hPa 0,3 mm 0,0 km/h (0 Bft) N-NE 22 0 min 0 W/m 11,0 C 11,9 C 0,0 km/h (0 Bft)
05/11/2011 11:35 11,9 C 94 % 1001,6 hPa 0,0 mm 0,0 km/h (0 Bft) N-NE 22 0 min 0 W/m 11,0 C 11,9 C 0,0 km/h (0 Bft)
05/11/2011 11:40 12,0 C 94 % 1001,7 hPa 0,0 mm 0,0 km/h (0 Bft) N-NE 22 0 min 0 W/m 11,1 C 12,0 C 0,0 km/h (0 Bft)
05/11/2011 11:45 12,1 C 94 % 1001,7 hPa 0,0 mm 0,0 km/h (0 Bft) N-NE 22 0 min 0 W/m 11,2 C 12,1 C 0,0 km/h (0 Bft)
05/11/2011 11:50 12,1 C 94 % 1001,9 hPa 0,0 mm 2,9 km/h (1 Bft) N-NE 22 0 min 0 W/m 11,2 C 12,1 C 6,1 km/h (2 Bft)
05/11/2011 11:55 12,1 C 94 % 1002,1 hPa 0,0 mm 0,0 km/h (0 Bft) N-NE 22 0 min 0 W/m 11,2 C 12,1 C 3,6 km/h (1 Bft)
05/11/2011 12:00 12,1 C 94 % 1002,0 hPa 0,0 mm 2,2 km/h (1 Bft) N-NE 22 0 min 0 W/m 11,2 C 12,1 C 4,3 km/h (1 Bft)
05/11/2011 12:05 12,1 C 94 % 1002,0 hPa 0,0 mm 0,0 km/h (0 Bft) N-NE 22 0 min 0 W/m 11,2 C 12,1 C 0,0 km/h (0 Bft)
05/11/2011 12:10 12,1 C 94 % 1002,0 hPa 0,0 mm 2,2 km/h (1 Bft) N-NE 22 0 min 0 W/m 11,2 C 12,1 C 4,0 km/h (1 Bft)
05/11/2011 12:15 12,1 C 94 % 1002,0 hPa 0,0 mm 0,4 km/h (0 Bft) N-NE 22 0 min 0 W/m 11,2 C 12,1 C 0,4 km/h (0 Bft)
05/11/2011 12:20 12,1 C 94 % 1002,0 hPa 0,3 mm 1,1 km/h (1 Bft) N-NE 22 0 min 0 W/m 11,2 C 12,1 C 4,0 km/h (1 Bft)
05/11/2011 12:25 12,0 C 94 % 1002,0 hPa 0,0 mm 0,0 km/h (0 Bft) N 360 0 min 0 W/m 11,1 C 12,0 C 0,0 km/h (0 Bft)
05/11/2011 12:30 12,0 C 94 % 1001,9 hPa 0,3 mm 0,7 km/h (0 Bft) N 360 0 min 0 W/m 11,1 C 12,0 C 4,0 km/h (1 Bft)
05/11/2011 12:35 12,1 C 94 % 1002,0 hPa 0,0 mm 0,7 km/h (0 Bft) N 360 0 min 0 W/m 11,2 C 12,1 C 0,7 km/h (0 Bft)
05/11/2011 12:40 12,0 C 94 % 1001,9 hPa 0,0 mm 0,0 km/h (0 Bft) N-NE 22 0 min 0 W/m 11,1 C 12,0 C 0,0 km/h (0 Bft)
05/11/2011 12:45 12,1 C 94 % 1001,9 hPa 0,0 mm 0,0 km/h (0 Bft) N-NE 22 0 min 0 W/m 11,2 C 12,1 C 0,0 km/h (0 Bft)
05/11/2011 12:50 12,2 C 94 % 1001,8 hPa 0,0 mm 0,0 km/h (0 Bft) N-NO 337 0 min 0 W/m 11,3 C 12,2 C 0,0 km/h (0 Bft)
05/11/2011 12:55 12,3 C 94 % 1001,6 hPa 0,0 mm 2,2 km/h (1 Bft) N 360 0 min 0 W/m 11,4 C 12,3 C 7,2 km/h (2 Bft)
05/11/2011 13:00 12,3 C 94 % 1001,6 hPa 0,0 mm 0,0 km/h (0 Bft) N 360 0 min 0 W/m 11,4 C 12,3 C 0,0 km/h (0 Bft)
05/11/2011 13:05 12,4 C 94 % 1001,6 hPa 0,0 mm 0,4 km/h (0 Bft) N-NO 337 0 min 0 W/m 11,5 C 12,4 C 3,2 km/h (1 Bft)
05/11/2011 13:10 12,5 C 94 % 1001,5 hPa 0,0 mm 0,0 km/h (0 Bft) N-NO 337 0 min 0 W/m 11,6 C 12,5 C 5,0 km/h (1 Bft)
05/11/2011 13:15 12,6 C 94 % 1001,4 hPa 0,0 mm 1,4 km/h (1 Bft) N-NO 337 0 min 0 W/m 11,7 C 12,6 C 6,8 km/h (2 Bft)
05/11/2011 13:20 12,6 C 94 % 1001,6 hPa 0,0 mm 0,4 km/h (0 Bft) N 360 0 min 0 W/m 11,7 C 12,6 C 1,4 km/h (1 Bft)
05/11/2011 13:25 12,7 C 94 % 1001,6 hPa 0,0 mm 1,1 km/h (1 Bft) N-NE 22 0 min 0 W/m 11,8 C 12,7 C 4,3 km/h (1 Bft)
05/11/2011 13:30 12,8 C 94 % 1001,7 hPa 0,0 mm 2,5 km/h (1 Bft) N-NO 337 0 min 0 W/m 11,9 C 12,8 C 4,7 km/h (1 Bft)
05/11/2011 13:35 12,8 C 94 % 1001,8 hPa 0,0 mm 2,5 km/h (1 Bft) N-NO 337 0 min 0 W/m 11,9 C 12,8 C 7,6 km/h (2 Bft)
05/11/2011 13:40 12,8 C 94 % 1001,8 hPa 0,0 mm 0,0 km/h (0 Bft) N-NO 337 0 min 0 W/m 11,9 C 12,8 C 0,0 km/h (0 Bft)
05/11/2011 13:45 12,8 C 94 % 1001,8 hPa 0,0 mm 0,4 km/h (0 Bft) N 360 0 min 0 W/m 11,9 C 12,8 C 2,9 km/h (1 Bft)
05/11/2011 13:50 12,9 C 94 % 1001,8 hPa 0,0 mm 2,9 km/h (1 Bft) N 360 0 min 0 W/m 12,0 C 12,9 C 7,2 km/h (2 Bft)
05/11/2011 13:55 12,9 C 94 % 1002,0 hPa 0,0 mm 6,8 km/h (2 Bft) N-NE 22 0 min 0 W/m 12,0 C 12,9 C 6,8 km/h (2 Bft)
05/11/2011 14:00 12,8 C 93 % 1002,1 hPa 0,0 mm 0,0 km/h (0 Bft) N-NE 22 0 min 0 W/m 11,7 C 12,8 C 3,2 km/h (1 Bft)
05/11/2011 14:05 12,8 C 93 % 1002,2 hPa 0,0 mm 0,4 km/h (0 Bft) N-NE 22 0 min 0 W/m 11,7 C 12,8 C 0,4 km/h (0 Bft)
05/11/2011 14:10 12,8 C 93 % 1002,4 hPa 0,0 mm 0,0 km/h (0 Bft) N-NE 22 0 min 0 W/m 11,7 C 12,8 C 0,0 km/h (0 Bft)
05/11/2011 14:15 12,8 C 93 % 1002,2 hPa 0,0 mm 2,2 km/h (1 Bft) N-NE 22 0 min 0 W/m 11,7 C 12,8 C 4,0 km/h (1 Bft)
05/11/2011 14:20 12,8 C 93 % 1002,1 hPa 0,0 mm 0,0 km/h (0 Bft) N-NO 337 0 min 0 W/m 11,7 C 12,8 C 0,0 km/h (0 Bft)
05/11/2011 14:25 12,8 C 93 % 1002,1 hPa 0,0 mm 2,2 km/h (1 Bft) NE 45 0 min 0 W/m 11,7 C 12,8 C 3,2 km/h (1 Bft)
05/11/2011 14:30 12,8 C 93 % 1002,2 hPa 0,0 mm 0,0 km/h (0 Bft) N-NE 22 0 min 0 W/m 11,7 C 12,8 C 1,4 km/h (1 Bft)
05/11/2011 14:35 12,8 C 93 % 1002,2 hPa 0,0 mm 0,0 km/h (0 Bft) N-NE 22 0 min 0 W/m 11,7 C 12,8 C 3,2 km/h (1 Bft)
05/11/2011 14:40 12,8 C 93 % 1002,1 hPa 0,0 mm 2,9 km/h (1 Bft) N 360 0 min 0 W/m 11,7 C 12,8 C 4,3 km/h (1 Bft)
05/11/2011 14:45 12,8 C 93 % 1002,1 hPa 0,0 mm 1,8 km/h (1 Bft) N-NE 22 0 min 0 W/m 11,7 C 12,8 C 4,3 km/h (1 Bft)
05/11/2011 14:50 12,8 C 93 % 1002,2 hPa 0,0 mm 0,0 km/h (0 Bft) N-NE 22 0 min 0 W/m 11,7 C 12,8 C 0,0 km/h (0 Bft)
05/11/2011 14:55 12,8 C 93 % 1002,4 hPa 0,0 mm 0,0 km/h (0 Bft) N-NE 22 0 min 0 W/m 11,7 C 12,8 C 0,0 km/h (0 Bft)
05/11/2011 15:00 12,8 C 93 % 1002,4 hPa 0,0 mm 0,0 km/h (0 Bft) N-NE 22 0 min 0 W/m 11,7 C 12,8 C 0,0 km/h (0 Bft)
05/11/2011 15:05 12,9 C 93 % 1002,3 hPa 0,0 mm 0,0 km/h (0 Bft) N-NE 22 0 min 0 W/m 11,8 C 12,9 C 0,0 km/h (0 Bft)
05/11/2011 15:10 12,9 C 93 % 1002,3 hPa 0,0 mm 0,0 km/h (0 Bft) N 360 0 min 0 W/m 11,8 C 12,9 C 3,6 km/h (1 Bft)
05/11/2011 15:15 13,1 C 93 % 1002,4 hPa 0,0 mm 0,7 km/h (0 Bft) N 360 0 min 0 W/m 12,0 C 13,1 C 3,6 km/h (1 Bft)
05/11/2011 15:20 13,1 C 93 % 1002,5 hPa 0,0 mm 2,5 km/h (1 Bft) N 360 0 min 0 W/m 12,0 C 13,1 C 2,9 km/h (1 Bft)
05/11/2011 15:25 13,1 C 93 % 1002,5 hPa 0,0 mm 2,2 km/h (1 Bft) N-NE 22 0 min 0 W/m 12,0 C 13,1 C 4,0 km/h (1 Bft)
05/11/2011 15:30 13,1 C 93 % 1002,5 hPa 0,0 mm 5,4 km/h (2 Bft) N-NE 22 0 min 0 W/m 12,0 C 13,1 C 10,1 km/h (2 Bft)
05/11/2011 15:35 13,0 C 93 % 1002,5 hPa 0,0 mm 5,4 km/h (2 Bft) N 360 0 min 0 W/m 11,9 C 13,0 C 5,4 km/h (2 Bft)
05/11/2011 15:40 13,1 C 93 % 1002,5 hPa 0,0 mm 2,2 km/h (1 Bft) N 360 0 min 0 W/m 12,0 C 13,1 C 7,2 km/h (2 Bft)
05/11/2011 15:45 13,1 C 93 % 1002,5 hPa 0,0 mm 3,6 km/h (1 Bft) N 360 0 min 0 W/m 12,0 C 13,1 C 8,3 km/h (2 Bft)
05/11/2011 15:50 13,1 C 92 % 1002,6 hPa 0,0 mm 2,5 km/h (1 Bft) N-NE 22 0 min 0 W/m 11,8 C 13,1 C 6,5 km/h (2 Bft)
05/11/2011 15:55 13,1 C 92 % 1002,6 hPa 0,0 mm 0,0 km/h (0 Bft) N-NE 22 0 min 0 W/m 11,8 C 13,1 C 0,0 km/h (0 Bft)
05/11/2011 16:00 13,1 C 92 % 1002,7 hPa 0,0 mm 2,9 km/h (1 Bft) N 360 0 min 0 W/m 11,8 C 13,1 C 2,9 km/h (1 Bft)
05/11/2011 16:05 13,1 C 92 % 1002,8 hPa 0,0 mm 0,7 km/h (0 Bft) N-NE 22 0 min 0 W/m 11,8 C 13,1 C 3,2 km/h (1 Bft)
05/11/2011 16:10 13,1 C 92 % 1002,9 hPa 0,0 mm 0,0 km/h (0 Bft) N 360 0 min 0 W/m 11,8 C 13,1 C 2,9 km/h (1 Bft)
05/11/2011 16:15 13,1 C 92 % 1003,0 hPa 0,0 mm 0,7 km/h (0 Bft) N-NE 22 0 min 0 W/m 11,8 C 13,1 C 0,7 km/h (0 Bft)
05/11/2011 16:20 13,1 C 92 % 1003,1 hPa 0,0 mm 0,7 km/h (0 Bft) N 360 0 min 0 W/m 11,8 C 13,1 C 4,3 km/h (1 Bft)
05/11/2011 16:25 13,1 C 92 % 1003,2 hPa 0,0 mm 0,0 km/h (0 Bft) N 360 0 min 0 W/m 11,8 C 13,1 C 3,2 km/h (1 Bft)
05/11/2011 16:30 13,1 C 92 % 1003,2 hPa 0,0 mm 1,1 km/h (1 Bft) N 360 0 min 0 W/m 11,8 C 13,1 C 3,2 km/h (1 Bft)
05/11/2011 16:35 13,0 C 92 % 1003,3 hPa 0,0 mm 1,1 km/h (1 Bft) N 360 0 min 0 W/m 11,7 C 13,0 C 6,1 km/h (2 Bft)
05/11/2011 16:40 12,9 C 92 % 1003,3 hPa 0,3 mm 1,4 km/h (1 Bft) E 90 0 min 0 W/m 11,6 C 12,9 C 4,0 km/h (1 Bft)
05/11/2011 16:45 12,9 C 92 % 1003,4 hPa 0,3 mm 2,5 km/h (1 Bft) N-NE 22 0 min 0 W/m 11,6 C 12,9 C 4,0 km/h (1 Bft)
05/11/2011 16:50 12,8 C 92 % 1003,4 hPa 0,0 mm 1,8 km/h (1 Bft) N 360 0 min 0 W/m 11,5 C 12,8 C 4,3 km/h (1 Bft)
05/11/2011 16:55 12,8 C 92 % 1003,5 hPa 0,0 mm 5,8 km/h (2 Bft) N 360 0 min 0 W/m 11,5 C 12,8 C 7,6 km/h (2 Bft)
05/11/2011 17:00 12,8 C 92 % 1003,7 hPa 0,0 mm 3,2 km/h (1 Bft) N-NE 22 0 min 0 W/m 11,5 C 12,8 C 4,0 km/h (1 Bft)
05/11/2011 17:05 12,6 C 92 % 1003,8 hPa 0,0 mm 6,5 km/h (2 Bft) N 360 0 min 0 W/m 11,3 C 12,6 C 14,4 km/h (3 Bft)
05/11/2011 17:10 12,6 C 92 % 1003,8 hPa 0,0 mm 0,4 km/h (0 Bft) N 360 0 min 0 W/m 11,3 C 12,6 C 0,4 km/h (0 Bft)
05/11/2011 17:15 12,6 C 93 % 1004,0 hPa 0,0 mm 4,3 km/h (1 Bft) N-NE 22 0 min 0 W/m 11,5 C 12,6 C 7,9 km/h (2 Bft)
05/11/2011 17:20 12,5 C 93 % 1004,1 hPa 0,0 mm 3,2 km/h (1 Bft) N 360 0 min 0 W/m 11,4 C 12,5 C 6,1 km/h (2 Bft)
05/11/2011 17:25 12,5 C 93 % 1004,1 hPa 0,0 mm 0,4 km/h (0 Bft) N 360 0 min 0 W/m 11,4 C 12,5 C 3,6 km/h (1 Bft)
05/11/2011 17:30 12,5 C 93 % 1004,2 hPa 0,0 mm 6,5 km/h (2 Bft) N 360 0 min 0 W/m 11,4 C 12,5 C 14,0 km/h (3 Bft)
05/11/2011 17:35 12,4 C 93 % 1004,2 hPa 0,0 mm 3,2 km/h (1 Bft) N-NE 22 0 min 0 W/m 11,3 C 12,4 C 7,9 km/h (2 Bft)
05/11/2011 17:40 12,4 C 93 % 1004,4 hPa 0,3 mm 6,1 km/h (2 Bft) NE 45 0 min 0 W/m 11,3 C 12,4 C 12,6 km/h (3 Bft)
05/11/2011 17:45 12,4 C 93 % 1004,4 hPa 0,0 mm 0,4 km/h (0 Bft) N 360 0 min 0 W/m 11,3 C 12,4 C 4,3 km/h (1 Bft)
05/11/2011 17:50 12,3 C 93 % 1004,4 hPa 0,0 mm 4,7 km/h (1 Bft) N-NE 22 0 min 0 W/m 11,2 C 12,3 C 11,2 km/h (2 Bft)
05/11/2011 17:55 12,3 C 93 % 1004,4 hPa 0,0 mm 2,9 km/h (1 Bft) N-NO 337 0 min 0 W/m 11,2 C 12,3 C 4,3 km/h (1 Bft)
05/11/2011 18:00 12,3 C 93 % 1004,4 hPa 0,0 mm 0,4 km/h (0 Bft) N-NO 337 0 min 0 W/m 11,2 C 12,3 C 3,6 km/h (1 Bft)
05/11/2011 18:05 12,3 C 93 % 1004,4 hPa 0,0 mm 2,9 km/h (1 Bft) N-NO 337 0 min 0 W/m 11,2 C 12,3 C 8,6 km/h (2 Bft)
05/11/2011 18:10 12,3 C 93 % 1004,5 hPa 0,0 mm 3,6 km/h (1 Bft) N-NE 22 0 min 0 W/m 11,2 C 12,3 C 7,9 km/h (2 Bft)
05/11/2011 18:15 12,3 C 93 % 1004,5 hPa 0,0 mm 1,4 km/h (1 Bft) N 360 0 min 0 W/m 11,2 C 12,3 C 3,6 km/h (1 Bft)
05/11/2011 18:20 12,3 C 93 % 1004,5 hPa 0,0 mm 5,8 km/h (2 Bft) N 360 0 min 0 W/m 11,2 C 12,3 C 7,9 km/h (2 Bft)
05/11/2011 18:25 12,3 C 94 % 1004,5 hPa 0,0 mm 0,0 km/h (0 Bft) N-NO 337 0 min 0 W/m 11,4 C 12,3 C 0,0 km/h (0 Bft)
05/11/2011 18:30 12,2 C 94 % 1004,6 hPa 0,3 mm 1,4 km/h (1 Bft) N-NE 22 0 min 0 W/m 11,3 C 12,2 C 6,1 km/h (2 Bft)
05/11/2011 18:35 12,2 C 94 % 1004,6 hPa 0,0 mm 1,1 km/h (1 Bft) N 360 0 min 0 W/m 11,3 C 12,2 C 3,6 km/h (1 Bft)
05/11/2011 18:40 12,2 C 94 % 1004,7 hPa 0,0 mm 5,0 km/h (1 Bft) N-NE 22 0 min 0 W/m 11,3 C 12,2 C 6,1 km/h (2 Bft)
05/11/2011 18:45 12,2 C 94 % 1004,7 hPa 0,0 mm 5,0 km/h (1 Bft) N 360 0 min 0 W/m 11,3 C 12,2 C 5,8 km/h (2 Bft)
05/11/2011 18:50 12,2 C 94 % 1004,7 hPa 0,0 mm 5,8 km/h (2 Bft) N-NO 337 0 min 0 W/m 11,3 C 12,2 C 5,8 km/h (2 Bft)
05/11/2011 18:55 12,2 C 94 % 1004,8 hPa 0,3 mm 1,1 km/h (1 Bft) N 360 0 min 0 W/m 11,3 C 12,2 C 3,2 km/h (1 Bft)
05/11/2011 19:00 12,1 C 94 % 1004,8 hPa 0,0 mm 5,4 km/h (2 Bft) N-NO 337 0 min 0 W/m 11,2 C 12,1 C 8,6 km/h (2 Bft)
05/11/2011 19:05 12,1 C 94 % 1004,9 hPa 0,3 mm 3,2 km/h (1 Bft) N-NO 337 0 min 0 W/m 11,2 C 12,1 C 9,7 km/h (2 Bft)
05/11/2011 19:10 12,1 C 94 % 1004,9 hPa 0,0 mm 9,0 km/h (2 Bft) NO 315 0 min 0 W/m 11,2 C 12,1 C 13,7 km/h (3 Bft)
05/11/2011 19:15 12,1 C 94 % 1005,0 hPa 0,0 mm 3,6 km/h (1 Bft) N-NE 22 0 min 0 W/m 11,2 C 12,1 C 10,1 km/h (2 Bft)
05/11/2011 19:20 12,1 C 94 % 1005,1 hPa 0,3 mm 3,6 km/h (1 Bft) N-NE 22 0 min 0 W/m 11,2 C 12,1 C 14,4 km/h (3 Bft)
05/11/2011 19:25 12,1 C 94 % 1005,1 hPa 0,3 mm 4,7 km/h (1 Bft) N-NE 22 0 min 0 W/m 11,2 C 12,1 C 7,2 km/h (2 Bft)
05/11/2011 19:30 12,1 C 94 % 1005,1 hPa 0,0 mm 3,6 km/h (1 Bft) N-NE 22 0 min 0 W/m 11,2 C 12,1 C 3,6 km/h (1 Bft)
05/11/2011 19:35 12,1 C 94 % 1005,2 hPa 0,3 mm 2,2 km/h (1 Bft) N-NE 22 0 min 0 W/m 11,2 C 12,1 C 7,6 km/h (2 Bft)
05/11/2011 19:40 12,1 C 94 % 1005,2 hPa 0,3 mm 4,3 km/h (1 Bft) N-NO 337 0 min 0 W/m 11,2 C 12,1 C 7,6 km/h (2 Bft)
05/11/2011 19:45 12,1 C 94 % 1005,2 hPa 0,3 mm 3,6 km/h (1 Bft) N-NO 337 0 min 0 W/m 11,2 C 12,1 C 7,2 km/h (2 Bft)
05/11/2011 19:50 12,1 C 94 % 1005,2 hPa 0,3 mm 1,1 km/h (1 Bft) N 360 0 min 0 W/m 11,2 C 12,1 C 6,1 km/h (2 Bft)
05/11/2011 19:55 12,1 C 94 % 1005,1 hPa 0,3 mm 8,3 km/h (2 Bft) N-NE 22 0 min 0 W/m 11,2 C 12,1 C 15,8 km/h (3 Bft)
05/11/2011 20:00 12,1 C 94 % 1005,1 hPa 0,3 mm 1,1 km/h (1 Bft) N-NE 22 0 min 0 W/m 11,2 C 12,1 C 1,4 km/h (1 Bft)
05/11/2011 20:05 12,1 C 94 % 1005,1 hPa 0,3 mm 4,3 km/h (1 Bft) N 360 0 min 0 W/m 11,2 C 12,1 C 4,3 km/h (1 Bft)
05/11/2011 20:10 12,1 C 94 % 1005,2 hPa 0,0 mm 4,7 km/h (1 Bft) N-NO 337 0 min 0 W/m 11,2 C 12,1 C 4,7 km/h (1 Bft)
05/11/2011 20:15 12,1 C 94 % 1005,5 hPa 0,3 mm 3,2 km/h (1 Bft) N-NE 22 0 min 0 W/m 11,2 C 12,1 C 4,3 km/h (1 Bft)
05/11/2011 20:20 12,1 C 94 % 1005,6 hPa 0,3 mm 3,2 km/h (1 Bft) N-NE 22 0 min 0 W/m 11,2 C 12,1 C 3,6 km/h (1 Bft)
05/11/2011 20:25 12,1 C 95 % 1005,7 hPa 0,3 mm 5,0 km/h (1 Bft) N-NE 22 0 min 0 W/m 11,3 C 12,1 C 10,1 km/h (2 Bft)
05/11/2011 20:30 12,1 C 95 % 1005,8 hPa 0,0 mm 9,7 km/h (2 Bft) N 360 0 min 0 W/m 11,3 C 12,1 C 16,6 km/h (3 Bft)
05/11/2011 20:35 12,1 C 95 % 1005,8 hPa 0,3 mm 5,0 km/h (1 Bft) NO 315 0 min 0 W/m 11,3 C 12,1 C 6,8 km/h (2 Bft)
05/11/2011 20:40 12,1 C 95 % 1005,7 hPa 0,3 mm 0,7 km/h (0 Bft) N-NE 22 0 min 0 W/m 11,3 C 12,1 C 3,2 km/h (1 Bft)
05/11/2011 20:45 12,2 C 95 % 1005,8 hPa 0,3 mm 0,4 km/h (0 Bft) N 360 0 min 0 W/m 11,4 C 12,2 C 2,9 km/h (1 Bft)
05/11/2011 20:50 12,2 C 95 % 1005,9 hPa 0,3 mm 3,2 km/h (1 Bft) NE 45 0 min 0 W/m 11,4 C 12,2 C 4,0 km/h (1 Bft)
05/11/2011 20:55 12,2 C 95 % 1006,0 hPa 0,3 mm 2,2 km/h (1 Bft) N 360 0 min 0 W/m 11,4 C 12,2 C 4,3 km/h (1 Bft)
05/11/2011 21:00 12,2 C 95 % 1005,9 hPa 0,0 mm 2,5 km/h (1 Bft) N 360 0 min 0 W/m 11,4 C 12,2 C 6,8 km/h (2 Bft)
05/11/2011 21:05 12,2 C 95 % 1005,9 hPa 0,3 mm 3,2 km/h (1 Bft) N 360 0 min 0 W/m 11,4 C 12,2 C 3,2 km/h (1 Bft)
05/11/2011 21:10 12,2 C 95 % 1005,9 hPa 0,0 mm 3,2 km/h (1 Bft) NO 315 0 min 0 W/m 11,4 C 12,2 C 3,2 km/h (1 Bft)
05/11/2011 21:15 12,2 C 95 % 1006,1 hPa 0,3 mm 0,4 km/h (0 Bft) N 360 0 min 0 W/m 11,4 C 12,2 C 4,0 km/h (1 Bft)
05/11/2011 21:20 12,2 C 95 % 1006,0 hPa 0,0 mm 3,2 km/h (1 Bft) N 360 0 min 0 W/m 11,4 C 12,2 C 7,6 km/h (2 Bft)
05/11/2011 21:25 12,2 C 95 % 1006,1 hPa 0,3 mm 5,0 km/h (1 Bft) N 360 0 min 0 W/m 11,4 C 12,2 C 5,0 km/h (1 Bft)
05/11/2011 21:30 12,2 C 95 % 1006,2 hPa 0,3 mm 2,5 km/h (1 Bft) N 360 0 min 0 W/m 11,4 C 12,2 C 8,3 km/h (2 Bft)
05/11/2011 21:35 12,2 C 95 % 1006,2 hPa 0,3 mm 4,0 km/h (1 Bft) N-NO 337 0 min 0 W/m 11,4 C 12,2 C 7,9 km/h (2 Bft)
05/11/2011 21:40 12,2 C 95 % 1006,4 hPa 0,0 mm 7,6 km/h (2 Bft) N-NE 22 0 min 0 W/m 11,4 C 12,2 C 7,9 km/h (2 Bft)
05/11/2011 21:45 12,3 C 95 % 1006,4 hPa 0,0 mm 5,0 km/h (1 Bft) N 360 0 min 0 W/m 11,5 C 12,3 C 11,2 km/h (2 Bft)
05/11/2011 21:50 12,3 C 95 % 1006,3 hPa 0,8 mm 8,3 km/h (2 Bft) NE 45 0 min 0 W/m 11,5 C 12,3 C 13,3 km/h (3 Bft)
05/11/2011 21:55 12,3 C 95 % 1006,4 hPa 0,3 mm 4,7 km/h (1 Bft) N 360 0 min 0 W/m 11,5 C 12,3 C 8,3 km/h (2 Bft)
05/11/2011 22:00 12,3 C 95 % 1006,4 hPa 0,0 mm 1,8 km/h (1 Bft) N-NE 22 0 min 0 W/m 11,5 C 12,3 C 1,8 km/h (1 Bft)
05/11/2011 22:05 12,3 C 95 % 1006,5 hPa 0,5 mm 0,0 km/h (0 Bft) NE 45 0 min 0 W/m 11,5 C 12,3 C 0,0 km/h (0 Bft)
05/11/2011 22:10 12,3 C 95 % 1006,3 hPa 0,3 mm 1,8 km/h (1 Bft) N 360 0 min 0 W/m 11,5 C 12,3 C 7,9 km/h (2 Bft)
05/11/2011 22:15 12,3 C 95 % 1006,2 hPa 0,5 mm 2,2 km/h (1 Bft) NO 315 0 min 0 W/m 11,5 C 12,3 C 4,0 km/h (1 Bft)
05/11/2011 22:20 12,3 C 95 % 1006,2 hPa 0,3 mm 3,2 km/h (1 Bft) N-NO 337 0 min 0 W/m 11,5 C 12,3 C 3,2 km/h (1 Bft)
05/11/2011 22:25 12,3 C 95 % 1006,3 hPa 0,0 mm 7,2 km/h (2 Bft) NO 315 0 min 0 W/m 11,5 C 12,3 C 8,6 km/h (2 Bft)
05/11/2011 22:30 12,3 C 95 % 1006,4 hPa 0,0 mm 3,2 km/h (1 Bft) NE 45 0 min 0 W/m 11,5 C 12,3 C 9,0 km/h (2 Bft)
05/11/2011 22:35 12,3 C 95 % 1006,4 hPa 0,0 mm 2,2 km/h (1 Bft) N-NO 337 0 min 0 W/m 11,5 C 12,3 C 7,6 km/h (2 Bft)
05/11/2011 22:40 12,3 C 95 % 1006,4 hPa 0,3 mm 3,6 km/h (1 Bft) N 360 0 min 0 W/m 11,5 C 12,3 C 4,0 km/h (1 Bft)
05/11/2011 22:45 12,2 C 95 % 1006,5 hPa 0,0 mm 4,3 km/h (1 Bft) N 360 0 min 0 W/m 11,4 C 12,2 C 9,0 km/h (2 Bft)
05/11/2011 22:50 12,3 C 95 % 1006,5 hPa 0,0 mm 2,5 km/h (1 Bft) N-NE 22 0 min 0 W/m 11,5 C 12,3 C 3,6 km/h (1 Bft)
05/11/2011 22:55 12,2 C 95 % 1006,5 hPa 0,3 mm 6,1 km/h (2 Bft) NE 45 0 min 0 W/m 11,4 C 12,2 C 17,6 km/h (3 Bft)
05/11/2011 23:00 12,2 C 95 % 1006,5 hPa 0,0 mm 3,6 km/h (1 Bft) N-NO 337 0 min 0 W/m 11,4 C 12,2 C 9,7 km/h (2 Bft)
05/11/2011 23:05 12,2 C 95 % 1006,6 hPa 0,0 mm 5,0 km/h (1 Bft) N-NE 22 0 min 0 W/m 11,4 C 12,2 C 10,8 km/h (2 Bft)
05/11/2011 23:10 12,2 C 95 % 1006,7 hPa 0,0 mm 3,6 km/h (1 Bft) N-NE 22 0 min 0 W/m 11,4 C 12,2 C 16,2 km/h (3 Bft)
05/11/2011 23:15 12,2 C 95 % 1006,7 hPa 0,0 mm 0,4 km/h (0 Bft) N-NO 337 0 min 0 W/m 11,4 C 12,2 C 1,4 km/h (1 Bft)
05/11/2011 23:20 12,2 C 95 % 1006,7 hPa 0,0 mm 1,8 km/h (1 Bft) N-NE 22 0 min 0 W/m 11,4 C 12,2 C 6,8 km/h (2 Bft)
05/11/2011 23:25 12,2 C 95 % 1006,8 hPa 0,0 mm 3,2 km/h (1 Bft) N-NE 22 0 min 0 W/m 11,4 C 12,2 C 8,3 km/h (2 Bft)
05/11/2011 23:30 12,2 C 95 % 1006,7 hPa 0,3 mm 0,0 km/h (0 Bft) N-NE 22 0 min 0 W/m 11,4 C 12,2 C 0,0 km/h (0 Bft)
05/11/2011 23:35 12,2 C 95 % 1006,7 hPa 0,0 mm 5,0 km/h (1 Bft) N 360 0 min 0 W/m 11,4 C 12,2 C 8,6 km/h (2 Bft)
05/11/2011 23:40 12,2 C 95 % 1006,7 hPa 0,3 mm 2,9 km/h (1 Bft) N-NE 22 0 min 0 W/m 11,4 C 12,2 C 6,1 km/h (2 Bft)
05/11/2011 23:45 12,2 C 95 % 1006,7 hPa 0,0 mm 9,0 km/h (2 Bft) N 360 0 min 0 W/m 11,4 C 12,2 C 13,0 km/h (3 Bft)
05/11/2011 23:50 12,2 C 95 % 1006,7 hPa 0,3 mm 5,4 km/h (2 Bft) N-NO 337 0 min 0 W/m 11,4 C 12,2 C 5,4 km/h (2 Bft)
05/11/2011 23:55 12,2 C 95 % 1006,9 hPa 0,0 mm 7,6 km/h (2 Bft) NE 45 0 min 0 W/m 11,4 C 12,2 C 10,4 km/h (2 Bft)
_ Min-Heure 05:50 00:00 00:00 - 23:30 - - - - 04:30 05:50 23:30
Minimum _ 10,9 C 89 % 995,6 hPa - 0,0 km/h (0 Bft) - - - - 9,8 C 10,9 C 0,0 km/h (0 Bft)
_ Max-Heure 16:30 23:55 23:55 21:50 20:30 - - 23:55 23:55 15:45 16:30 22:55
Maximum _ 13,1 C 95 % 1006,9 hPa 0,8 mm 9,7 km/h
N (2 Bft)
- - 0 min 0 W/m 12,0 C 13,1 C 17,6 km/h
NE (3 Bft)
Moyenne _ 12,0 C 93 % 1001,3 hPa #14,8 mm 1,5 km/h (1 Bft) N-NO - #0 min. 0 W/m 11,0 C 12,0 C 3,2 km/h (1 Bft)
Saint Bonnet de Bellac- Haute Vienne - France